[[{"header":{"parameterUnit":"m.s-1","parameterCategory":1,"la1":30.2992,"la2":30.254,"lo1":-89.0895,"lo2":-89.0443,"dy":0.0025,"dx":0.0025,"nx":19,"ny":19,"refTime":"2026-05-17T03:00:00:Z","depth":0,"parameterNumber":2,"parameterNumberName":"U-component_of_WINDS"},"data":[0,0,0,-4.162,-4.1621,-4.1657,-4.1657,-4.1719,-4.172,0,0,0,0,0,0,0,0,0,0,0,-4.1619,-4.162,-4.162,-4.1621,-4.1657,-4.1657,-4.1719,-4.172,0,0,0,0,0,0,0,0,0,0,0,-4.1619,-4.162,-4.1621,-4.1621,-4.1657,-4.1657,-4.1719,-4.1686,0,0,0,0,0,0,0,0,0,0,-4.1649,-4.1657,-4.162,-4.1621,-4.1622,-4.1657,-4.1657,-4.1684,-4.1688,-4.171,0,-4.1732,0,-4.1727,-4.1725,-4.1725,0,0,0,-4.1614,-4.1654,-4.1655,-4.1621,-4.1622,-4.1656,-4.1639,-4.1686,-4.1691,-4.1715,-4.1732,-4.1734,-4.1728,-4.1725,-4.1726,-4.1876,-4.1877,0,0,-4.1612,-4.1631,-4.1652,-4.1658,-4.1653,-4.1637,-4.164,-4.1688,-4.1708,-4.1732,-4.1735,-4.1729,-4.1726,-4.1726,-4.1875,-4.1876,0,0,0,-4.1611,-4.163,-4.1629,-4.1656,-4.1661,-4.1639,-4.1641,-4.1706,-4.1704,-4.1736,-4.173,-4.1726,-4.1727,-4.1874,-4.1876,-4.1944,0,0,0,-4.161,-4.1629,-4.1629,-4.164,-4.1661,-4.1684,-4.1658,-4.1701,-4.1706,-4.1729,-4.1726,-4.1728,-4.1873,-4.1875,-4.194,-4.1973,0,0,0,-4.1614,-4.1629,-4.1638,-4.1641,-4.1657,-4.1683,-4.1683,-4.1702,-4.1703,-4.1725,-4.1728,-4.1872,-4.1874,-4.1936,-4.1967,-4.2018,0,0,0,-4.1623,-4.1698,-4.1639,-4.1721,-4.1657,-4.1726,-4.1683,-4.1733,-4.1761,-4.1727,-4.1873,-4.1875,-4.1935,-4.1963,-4.2014,-4.2064,-4.2087,0,0,-4.1728,-4.1711,-4.1758,-4.1707,-4.179,-4.1719,-4.1813,-4.182,-4.1806,-4.1854,-4.1857,-4.1942,-4.1966,-4.2017,-4.221,-4.2228,0,0,0,-4.1798,-4.1832,-4.185,-4.1877,-4.1886,-4.1896,-4.1887,-4.1891,-4.1931,-4.1834,-4.1974,-4.1988,-4.2017,-4.204,-4.2056,-4.208,-4.1887,-4.1887,-4.1887,-4.1972,-4.195,-4.2026,-4.2009,-4.2037,-4.2028,-4.2049,-4.2052,-4.2021,-4.2055,-4.2068,-4.2188,-4.2215,-4.2227,-4.2252,-4.2094,-4.2094,-4.2094,-4.2095,-4.2123,-4.2167,-4.2127,-4.2186,-4.2163,-4.2212,-4.2209,-4.2186,-4.2229,-4.2175,-4.22,-4.2142,-4.2248,-4.2268,-4.21,-4.2099,-4.2098,-4.2098,-4.2097,-4.2234,-4.2251,-4.2255,-4.2293,-4.2326,-4.2307,-4.2351,-4.2328,-4.2308,-4.2332,-4.2344,-4.2343,-4.2338,-4.234,-4.234,-4.2341,-4.2341,-4.2341,-4.2342,-4.2346,-4.2348,-4.2387,-4.2405,-4.242,-4.2438,-4.2433,-4.2448,-4.2459,-4.2439,-4.2439,-4.2405,-4.2262,-4.2226,-4.2348,-4.2347,-4.2346,-4.2345,-4.2345,-4.2505,-4.2466,-4.2527,-4.2543,-4.2562,-4.2597,-4.2569,-4.2602,-4.2611,-4.2634,-4.2596,-4.2495,-4.2476,-4.2463,-4.2433,-4.2601,-4.2601,-4.2601,-4.2601,-4.2598,-4.2587,-4.2645,-4.2672,-4.2696,-4.2678,-4.2749,-4.2746,-4.2738,-4.2742,-4.2716,-4.2674,-4.2663,-4.2651,-4.2634,-4.2606,-4.2813,-4.2814,-4.2814,-4.2694,-4.2685,-4.2749,-4.274,-4.2754,-4.2767,-4.2833,-4.2867,-4.2849,-4.2822,-4.2746,-4.2737,-4.267,-4.265,-4.2618,-4.2593,-4.254,0,0]},{"header":{"parameterUnit":"m.s-1","parameterCategory":1,"la1":30.2992,"la2":30.254,"lo1":-89.0895,"lo2":-89.0443,"dy":0.0025,"dx":0.0025,"nx":19,"ny":19,"refTime":"2026-05-17T03:00:00:Z","depth":0,"parameterNumber":3,"parameterNumberName":"V-component_of_WINDS"},"data":[0,0,0,4.0188,4.0188,4.0222,4.0222,4.0254,4.0255,0,0,0,0,0,0,0,0,0,0,0,4.0172,4.0172,4.0188,4.0188,4.0222,4.0222,4.0254,4.0255,0,0,0,0,0,0,0,0,0,0,0,4.0172,4.0172,4.0172,4.0188,4.0222,4.0222,4.0254,4.0233,0,0,0,0,0,0,0,0,0,0,4.0202,4.0182,4.0172,4.0172,4.0189,4.0222,4.0222,4.0232,4.0234,4.0235,0,4.0235,0,4.0246,4.0256,4.0256,0,0,0,4.0192,4.018,4.0195,4.0172,4.0189,4.0222,4.0208,4.0233,4.0236,4.0238,4.0236,4.0238,4.0246,4.0256,4.0257,4.0254,4.0254,0,0,4.019,4.0175,4.0193,4.0196,4.0191,4.0207,4.0209,4.0235,4.0231,4.0236,4.0238,4.0247,4.0257,4.0257,4.0254,4.0254,0,0,0,4.0182,4.0173,4.0187,4.0194,4.0201,4.0208,4.021,4.023,4.0236,4.0239,4.0247,4.0257,4.0257,4.0254,4.0254,4.023,0,0,0,4.0182,4.0169,4.0186,4.0177,4.0201,4.0216,4.0204,4.0234,4.0237,4.0247,4.0257,4.0257,4.0254,4.0254,4.0232,4.0221,0,0,0,4.0172,4.0168,4.0171,4.0176,4.019,4.0216,4.0224,4.0235,4.0242,4.0256,4.0257,4.0255,4.0254,4.0233,4.0223,4.0217,0,0,0,4.0157,4.0148,4.017,4.0164,4.019,4.0202,4.0224,4.0233,4.0242,4.0257,4.0254,4.0254,4.0233,4.0224,4.0218,4.0209,4.0204,0,0,4.0138,4.0146,4.0143,4.0164,4.0168,4.0198,4.0198,4.022,4.0235,4.0246,4.0247,4.0231,4.0223,4.0217,4.018,4.0176,0,0,0,4.0132,4.013,4.0135,4.0143,4.0161,4.0176,4.02,4.0208,4.0219,4.0238,4.0228,4.0223,4.022,4.0217,4.0213,4.0212,4.0252,4.0252,4.0252,4.0082,4.0103,4.0101,4.0125,4.0134,4.016,4.0168,4.0184,4.0201,4.0198,4.0201,4.0177,4.0172,4.017,4.0168,4.0198,4.0198,4.0198,4.0198,4.0056,4.0057,4.0082,4.0088,4.011,4.0116,4.014,4.0152,4.016,4.0176,4.0174,4.0189,4.0164,4.0164,4.0197,4.0197,4.0197,4.0197,4.0197,4.0026,4.003,4.0041,4.0058,4.0067,4.0093,4.01,4.0119,4.0137,4.0135,4.0141,4.0142,4.0145,4.0137,4.0137,4.0137,4.0137,4.0136,4.0136,3.999,4.0004,4.0008,4.0027,4.0036,4.005,4.0077,4.0086,4.0101,4.0114,4.0114,4.0132,4.0158,4.0165,4.0135,4.0135,4.0136,4.0136,4.0136,3.9956,3.9967,3.9974,3.9983,4.0008,4.0017,4.0041,4.0058,4.0068,4.0071,4.009,4.0106,4.0115,4.0118,4.0124,4.0085,4.0085,4.0085,4.0085,3.9931,3.9938,3.995,3.9963,3.9978,4.0002,4.0008,4.0029,4.0052,4.006,4.0068,4.0077,4.0079,4.0087,4.009,4.0096,4.0051,4.0051,4.0051,3.9911,3.9921,3.9923,3.9947,3.9968,3.9986,3.9993,4.0007,4.0035,4.005,4.0066,4.0068,4.0082,4.0086,4.0101,4.0106,4.0116,0,0]}]]